This is the latest recevied weather packets stored in our database for station/object KG2V. If no packets are shown the sender has not sent any weather packets the latest 10 day(s).
| Time | Temp. | Humidity | Pressure | Rain* | Wind** | Luminosity | Snow |
|---|---|---|---|---|---|---|---|
| 1778264309 | 11.67° C | 55% | 1007.2 hPa | 0 mm | - | 789 W/m² | - |
| 1778264006 | 13.33° C | 49% | 1007.3 hPa | 0 mm | - | 776 W/m² | - |
| 1778263703 | 12.78° C | 48% | 1007.3 hPa | 0 mm | - | 742 W/m² | - |
| 1778263400 | 12.78° C | 51% | 1007.5 hPa | 0 mm | - | 737 W/m² | - |
| 1778263096 | 12.78° C | 48% | 1007.4 hPa | 0 mm | - | 729 W/m² | - |
| 1778262792 | 13.33° C | 51% | 1007.3 hPa | 0 mm | - | 733 W/m² | - |
| 1778262491 | 12.78° C | 46% | 1007.4 hPa | 0 mm | - | 731 W/m² | - |
| 1778262188 | 12.22° C | 50% | 1007.9 hPa | 0 mm | - | 744 W/m² | - |
| 1778261884 | 11.67° C | 57% | 1007.6 hPa | 0 mm | - | 821 W/m² | - |
| 1778261581 | 12.78° C | 54% | 1007.6 hPa | 0 mm | - | 780 W/m² | - |
| 1778261277 | 11.67° C | 55% | 1007.6 hPa | 0 mm | - | 737 W/m² | - |
| 1778260974 | 11.11° C | 59% | 1007.9 hPa | 0 mm | - | 742 W/m² | - |
| 1778260670 | 11.67° C | 59% | 1007.9 hPa | 0 mm | - | 738 W/m² | - |
| 1778260366 | 11.67° C | 59% | 1008.1 hPa | 0 mm | - | 781 W/m² | - |
| 1778260063 | 10.56° C | 66% | 1007.9 hPa | 0 mm | - | 755 W/m² | - |
| 1778259762 | 10.56° C | 66% | 1008.1 hPa | 0 mm | - | 185 W/m² | - |
| 1778259458 | 11.11° C | 57% | 1008 hPa | 0 mm | - | 612 W/m² | - |
| 1778259155 | 10.56° C | 67% | 1008.1 hPa | 0 mm | - | 154 W/m² | - |
| 1778258851 | 10° C | 66% | 1008.1 hPa | 0 mm | - | 770 W/m² | - |
| 1778258548 | 9.44° C | 67% | 1007.7 hPa | 0 mm | - | 827 W/m² | - |
| 1778258246 | 10° C | 67% | 1008.1 hPa | 0 mm | - | 165 W/m² | - |
| 1778257943 | 10° C | 70% | 1008.3 hPa | 0 mm | - | 735 W/m² | - |
| 1778257639 | 9.44° C | 67% | 1008.6 hPa | 0 mm | - | 141 W/m² | - |
| 1778257336 | 10° C | 67% | 1008.4 hPa | 0 mm | - | 195 W/m² | - |
| 1778257033 | 9.44° C | 66% | 1008.6 hPa | 0 mm | - | 219 W/m² | - |
* Rain latest hour (hover to see other rain measurements)
** Current wind speed in m/s (hover to see current wind gust speed)